Location: Burgberg
(50.1428°N, 11.0671°E)
Time: 18:52:42
(UTC+00:00)

ADEOS Rocket - Pass Details

Date: 26 January 2020
Orbit: 859 x 1306 km, 98.7° (Epoch: 21 February)

Event Time Altitude Azimuth Distance (km) Brightness Sun altitude
Rises 04:59:09 0° 157° (SSE) 3,425 6.3 -18.9°
Reaches altitude 10° 05:01:28 10° 155° (SSE) 2,502 5.6 -18.6°
Maximum altitude 05:06:57 75° 72° (ENE) 929 3.0 -17.7°
Drops below altitude 10° 05:12:50 10° 348° (NNW) 2,676 5.1 -16.8°
Sets 05:15:23 0° 347° (NNW) 3,681 5.8 -16.4°
